OV1-20/OV1-21 AKM, 5395

Orbit data source: Space-Track

OV1-20/OV1-21 AKM, 5395 is space debris in LEO originally from a launch on Sat, 07 Aug 1971 UTC launched from the Air Force Western Test Range (AFWTR). Debris objects in space refer to the collection of defunct objects orbiting the Earth. Examples of debris include non-operational satellites, rocket bodies, and fragments generated from explosions, collisions, or faulty payload assembly.

Loading next visibility...
Identifier
5395, 1971-067K
Orbit
LEO
Country
Flag of USUS
Related business
Manufacturer
Unknown
Mission
Spacecraft
Bus & Motor
Unknown
Mass
~20 kg wet, ~15 kg dry
Launch date (UTC)
1971-08-07 (54 years ago)
Launch vehicle
Unknown
Launch site
Air Force Western Test Range (AFWTR)
Object type
Payload
Rocket body
Debris
Shape & HBR
Unknown
Radar Cross Section
Large (>1 m²)

Expand to show TLE details & history
Last TLE update: 17 hours ago

TLE from 17 hours ago
0 OV1-20/OV1-21 AKM
1 05395U 71067K   25348.90068274  .00001151  00000-0  33995-3 0  9991
2 05395  87.6188   9.4593 0052785 300.0292  59.5678 14.42018452831020
Epoch: 2025-12-14T21:36Z
TLE epoch observation values (Epoch: 2025-12-14T21:36:58.988Z)
Latitude
-0.00006°
Longitude
-38.59345°
Altitude
735.994 km
Speed
7.497 km/s
True Right ascension
00h 37m 50s
True Declination
0° 00' 00"
Sunlit
Object was in daylight at epoch
Visualization orbit readout
Latitude
Unknown
Longitude
Unknown
Altitude
Unknown
Speed
Unknown
Apparent Right ascension
Unknown
Apparent Declination
Unknown
Sunlit
N/A
Visualization observer readout
Local Sidereal Time
13:18:59
Azimuth
Unknown
Elevation
Unknown
Doppler factor
Unknown
Orbital elements
Apogee altitude
786.389 km
Perigee altitude
711.151 km
Semi-major axis
7,126.907 km
Eccentricity
0.00528
Inclination
87.6188°
RAAN
9.4593°
Arg. of periapsis
300.0292°
True anomaly
60.09108°
Mean anomaly
59.5678°
Eccentric anomaly
59.82927°
Mean motion
3.60738 °/min
Orbital period
99.8 mins
BSTAR
0.00033995
Loading maneuver chart data...
Computing Atmospheric mass density...
Loading historical data...
Loading historical data...
Loading historical data...
Loading historical data...
Loading historical data...
Loading historical data...
Loading historical data...

Documentation

Showing up to 5 results
|